Temperature
9 9 8 9 10 10 11 11 11 11 12 11 10 11 11 12 11 11 10 10 9 9 8 8 7 7 8 8 8 8 9 9 9 9 10 10 10 11 11 11 11 11 12 12
8 8 9 10 10 10 10 10 10 11 11 11 10 11 11 12 11 10 10 9 8 8 7 7 7 7 7 7 7 8 8 8 8 9 9 9 9 10 10 10 10 11 11 11
8 8 9 10 9 10 10 10 10 10 10 11 10 10 11 11 11 10 9 9 8 7 7 6 6 6 6 6 6 7 7 7 8 8 8 8 9 9 9 10 10 10 10 11
8 9 9 9 9 9 9 10 10 9 9 9 10 8 10 11 10 10 9 8 7 7 6 6 6 6 6 6 6 6 6 7 7 7 8 8 8 8 8 9 9 9 10 10
8 8 8 8 9 9 9 10 9 9 9 8 9 8 9 11 10 9 9 8 7 6 6 5 5 5 5 5 5 6 6 6 6 7 7 7 7 7 8 8 8 8 9 9
8 9 8 9 9 9 9 9 9 9 8 8 9 9 8 10 10 9 9 8 7 6 6 5 5 5 5 5 5 5 5 5 6 6 6 6 7 7 7 7 7 8 8 8
8 9 9 9 8 9 9 8 8 8 7 8 10 9 8 10 10 9 8 7 7 6 5 5 5 5 5 5 5 5 5 5 5 5 5 6 6 6 6 6 6 7 7 8
8 8 9 9 9 8 9 9 8 8 9 9 10 9 9 10 9 9 8 7 7 6 5 5 5 5 4 4 4 4 4 5 5 5 5 5 5 5 6 6 6 6 6 7
8 8 9 9 9 9 9 9 9 8 8 8 9 10 9 9 9 8 8 7 7 6 5 5 5 4 4 4 4 4 4 4 4 4 4 4 4 5 5 5 5 5 6 6
9 8 9 9 9 9 9 9 8 8 8 8 10 10 9 8 8 8 8 7 7 6 5 5 4 4 4 4 4 4 4 4 4 4 4 4 4 4 4 4 4 4 5 5
9 8 8 9 8 9 8 8 8 8 8 8 8 9 10 9 9 8 8 8 7 6 6 5 4 4 4 4 4 4 3 3 3 3 3 3 3 3 3 3 4 4 4 4
9 8 7 9 10 10 9 9 9 8 8 8 7 8 10 10 9 9 8 8 7 6 6 5 4 4 4 4 3 3 3 3 3 3 3 3 3 3 3 3 3 3 3 3
9 8 7 8 8 8 9 9 9 9 8 7 7 8 9 9 9 9 8 8 7 6 6 5 4 4 4 3 3 3 3 2 2 2 2 2 2 2 2 2 2 2 2 2
9 8 7 7 8 8 8 9 9 8 6 7 7 8 9 9 8 8 8 8 7 6 6 5 4 4 4 3 3 3 2 2 2 2 2 2 2 2 2 2 2 2 2 2
8 7 7 8 9 9 8 8 9 8 7 7 8 9 9 9 8 9 8 8 7 6 6 5 4 4 3 3 3 2 2 2 2 2 2 1 1 1 1 1 1 1 1 1
8 7 7 7 8 9 8 8 8 8 8 8 8 8 9 10 10 9 8 8 7 6 6 5 4 4 3 3 2 2 2 2 1 1 1 1 1 1 1 1 1 1 1 1
7 7 6 6 8 8 7 9 8 8 9 9 8 9 9 9 9 8 8 7 7 6 6 5 4 4 3 3 2 2 2 2 1 1 1 0 0 0 0 0 0 0 0 0
7 7 6 6 7 6 9 10 10 9 9 9 9 9 9 9 9 8 8 7 7 6 5 5 4 4 3 3 2 2 2 1 1 1 0 0 0 0 -0 -0 -0 -0 -0 -1
7 6 6 6 6 7 9 9 9 9 8 9 9 9 9 9 8 7 7 7 6 6 5 5 4 4 3 2 2 2 1 1 1 0 0 -0 -0 -0 -1 -1 -1 -1 -1 -1
6 6 5 6 6 7 10 9 9 9 7 9 9 9 8 8 5 6 7 7 6 5 5 4 4 3 3 2 2 1 1 1 0 0 -0 -1 -1 -1 -1 -1 -1 -2 -2 -2
5 5 4 5 5 7 9 8 8 7 8 9 9 9 8 7 6 7 7 6 6 5 5 4 3 3 2 2 2 1 1 1 0 -0 -0 -1 -1 -1 -1 -2 -2 -2 -2 -2
5 5 5 5 5 6 7 7 7 8 9 9 9 8 8 7 7 6 6 5 5 5 4 4 3 3 2 2 1 1 1 0 -0 -1 -1 -1 -1 -2 -2 -2 -2 -2 -3 -3
7 7 7 6 7 9 9 8 9 9 8 8 8 8 7 6 6 6 5 5 4 4 4 3 3 2 2 2 1 1 0 -0 -1 -1 -1 -1 -2 -2 -2 -2 -3 -3 -3 -4
8 8 6 6 7 9 9 9 9 9 8 8 7 7 6 6 5 5 5 4 4 4 3 3 2 2 2 1 1 0 -0 -1 -1 -1 -1 -2 -2 -2 -2 -3 -3 -4 -4 -4
6 6 5 5 6 8 9 9 9 8 7 7 7 6 6 5 5 4 4 4 3 3 3 2 2 2 1 1 0 -0 -1 -1 -1 -2 -2 -2 -2 -3 -3 -3 -4 -4 -5 -5
5 6 5 5 7 7 8 8 8 7 7 6 6 5 5 5 4 4 4 3 3 3 2 2 2 1 1 0 0 -0 -1 -1 -2 -2 -2 -3 -3 -3 -4 -4 -4 -4 -5 -5
Wind_Speed
1 2 3 3 2 4 1 0 1 1 2 1 5 6 4 2 1 1 2 4 5 6 6 7 8 8 8 8 8 8 8 8 7 5 5 4 3 3 3 3 4 4 3 4
3 4 4 3 2 2 1 1 0 1 1 2 5 7 5 4 3 2 2 3 5 6 7 8 8 8 8 9 9 9 9 9 8 6 5 4 4 3 3 3 3 3 3 3
5 4 2 2 1 1 0 0 1 2 4 5 5 6 5 5 5 3 2 2 4 5 7 8 8 8 8 8 9 9 9 9 8 8 6 5 4 3 3 4 4 4 4 3
4 3 1 1 1 1 0 3 1 2 3 3 3 3 4 7 5 3 2 2 3 5 6 7 8 8 8 7 7 8 9 9 8 7 6 5 4 3 3 3 3 4 4 4
3 2 1 1 1 1 1 2 2 3 4 4 5 4 4 4 4 2 2 2 2 3 5 6 7 7 7 8 7 8 8 9 9 8 8 6 4 3 3 3 4 4 3 3
3 2 1 2 2 0 2 3 4 4 2 4 5 5 4 3 3 2 2 2 3 3 4 5 5 6 7 7 7 7 8 9 9 9 8 7 6 5 5 5 4 4 3 3
2 3 3 1 0 2 2 2 1 2 3 4 4 3 4 3 5 3 2 2 2 3 3 4 5 6 7 8 8 8 8 9 9 9 8 8 6 5 5 5 4 4 3 3
1 1 3 2 1 0 2 2 2 2 2 1 2 4 3 6 6 4 3 2 1 1 2 3 4 5 5 6 7 7 8 8 9 8 7 7 7 5 4 5 4 4 3 4
2 1 3 2 0 1 1 1 1 2 4 3 4 4 4 5 5 3 3 2 1 1 1 2 2 3 4 5 5 6 7 7 8 9 8 7 7 6 6 6 5 4 5 5
3 1 2 4 2 2 2 3 2 2 3 3 4 4 3 6 5 4 3 2 2 1 0 1 1 2 3 3 4 5 6 6 7 8 8 7 7 7 6 5 6 6 6 6
2 1 1 3 4 4 4 3 3 3 3 2 4 3 1 5 5 4 3 3 3 3 2 0 0 1 1 2 3 5 6 6 6 7 6 7 7 7 7 6 7 6 6 7
2 1 3 4 2 1 2 4 3 3 4 3 3 4 2 4 4 3 3 3 3 3 2 1 0 1 2 2 3 4 4 5 5 6 6 6 6 7 7 7 7 7 7 6
3 2 3 2 2 2 4 5 5 4 3 3 3 5 3 4 4 4 3 3 3 3 3 2 1 0 1 2 2 3 4 4 5 5 5 6 6 7 7 7 7 7 6 6
3 3 4 4 3 2 5 6 7 6 4 5 7 8 5 5 4 3 3 3 3 3 3 2 2 1 0 1 2 3 4 4 5 5 5 6 6 6 6 6 7 6 6 6
2 4 6 9 11 9 10 10 10 11 10 8 7 8 8 4 3 3 3 3 3 2 3 3 2 1 1 0 1 2 3 4 4 5 5 5 5 6 6 6 6 6 6 7
2 4 6 7 9 10 12 13 13 12 13 14 13 13 7 3 2 2 3 3 3 3 2 2 2 2 1 1 0 1 2 3 3 4 5 5 5 6 6 6 6 6 6 6
3 3 3 5 6 8 9 11 12 9 8 9 12 10 4 3 3 3 3 3 4 3 3 2 2 3 2 1 1 0 1 2 3 3 4 5 5 6 6 7 6 6 6 6
4 4 3 4 6 7 6 1 3 7 9 10 9 6 4 3 2 2 3 4 3 3 2 2 2 2 2 2 1 0 1 1 2 3 4 4 5 5 6 6 6 6 5 6
6 4 4 3 5 9 6 4 4 4 6 8 9 6 4 1 2 4 3 3 3 2 2 2 2 2 2 2 1 0 1 1 2 3 4 4 5 5 6 6 6 5 5 5
4 5 4 4 5 6 3 4 4 1 6 5 5 5 3 3 2 3 2 3 2 2 2 2 2 2 2 2 1 1 1 2 2 3 3 4 4 5 5 6 6 5 5 5
4 5 7 8 7 8 3 6 5 3 5 2 4 4 4 5 5 3 3 2 2 2 2 2 2 2 2 2 1 1 2 2 2 2 3 4 4 5 5 5 5 5 6 6
8 6 7 6 7 9 5 7 7 5 1 1 2 3 4 4 2 2 3 3 3 3 2 2 2 2 2 2 2 2 3 2 1 2 3 4 5 5 5 5 5 5 6 6
8 8 5 8 10 4 8 8 5 2 3 3 3 3 3 4 4 4 4 4 4 4 4 3 3 2 2 2 2 2 2 1 2 3 3 4 5 4 4 5 5 5 5 5
5 5 5 7 10 8 8 9 7 6 5 4 4 4 4 5 5 5 5 5 5 4 4 3 3 3 3 2 2 2 1 1 2 3 4 4 4 5 5 4 4 4 5 5
7 3 5 9 10 10 10 9 7 5 4 4 4 4 5 6 6 6 5 5 5 4 4 4 4 4 3 2 2 2 1 0 2 3 4 4 4 4 5 5 4 5 4 6
9 11 9 11 8 6 5 3 2 3 5 5 5 5 5 6 6 5 5 5 4 4 4 4 4 4 3 3 2 2 1 1 1 3 3 3 3 4 4 5 6 8 9 12
Wind_Direction
113 94 91 84 26 355 8 50 171 138 120 226 244 256 259 235 222 327 6 4 1 6 8 9 2 359 357 353 348 342 340 335 333 326 315 302 293 286 285 284 302 303 304 293
100 76 65 73 35 1 334 267 268 108 104 274 260 266 250 212 171 100 33 7 3 2 360 0 359 3 2 357 353 350 346 342 340 331 318 296 289 293 296 305 312 325 331 323
85 81 84 109 91 81 55 304 11 341 321 255 257 267 210 161 140 125 81 37 19 4 358 359 0 1 360 358 353 349 345 343 341 336 331 326 314 312 317 321 320 326 333 327
77 83 95 89 53 9 48 49 360 308 302 270 242 275 222 174 164 141 99 60 28 12 2 0 -0 358 357 355 353 350 350 349 347 345 345 342 331 314 310 320 323 325 337 340
86 93 69 49 37 24 359 343 288 277 279 286 233 234 257 178 189 163 115 83 48 21 8 5 3 356 358 359 359 353 353 358 355 354 352 345 335 324 322 329 327 321 325 339
101 92 26 16 28 277 299 273 244 237 260 260 218 210 251 197 182 155 109 75 50 25 16 9 2 359 1 2 1 358 360 0 357 356 355 353 347 336 336 336 326 320 326 329
93 138 138 153 272 187 248 285 258 207 220 239 168 200 239 156 117 122 115 64 39 25 19 3 358 358 359 360 360 359 2 1 1 2 0 357 352 347 341 335 327 330 330 330
43 132 152 178 307 347 250 297 334 289 281 310 191 226 215 127 114 114 122 128 73 38 26 3 360 359 356 358 359 358 359 0 2 3 1 360 360 355 352 349 343 343 340 333
9 67 129 153 265 307 274 247 2 299 289 265 234 201 149 131 142 161 170 168 185 36 30 3 9 7 359 357 357 356 358 1 4 6 6 3 1 1 360 357 358 356 351 344
344 318 186 143 180 232 285 321 293 253 289 287 268 233 202 178 194 195 199 202 205 204 136 22 7 5 6 358 355 359 1 3 2 5 8 6 2 2 1 1 3 358 354 351
321 302 242 184 209 195 184 212 235 261 272 278 290 283 86 156 171 191 204 197 200 205 184 186 343 11 18 10 9 7 3 4 2 0 1 1 0 359 1 4 3 360 357 355
352 316 270 238 164 98 223 228 225 251 264 245 262 267 120 123 143 178 202 199 194 190 171 170 159 23 22 15 9 8 360 359 356 354 355 356 356 360 2 1 359 357 355 354
340 285 294 243 171 186 241 232 230 255 289 258 245 251 161 163 178 191 203 203 191 184 176 175 179 28 16 13 5 4 1 359 353 353 355 357 359 1 358 355 354 354 351 351
310 264 243 254 275 269 250 239 221 213 225 246 235 251 236 216 215 220 212 202 195 189 188 192 199 202 134 26 7 5 1 359 356 357 358 358 357 354 349 348 350 350 349 349
275 266 263 269 278 274 258 250 236 226 225 238 252 266 269 259 234 222 212 213 209 212 208 199 200 203 176 88 2 6 356 353 353 354 356 354 348 346 348 347 347 349 350 350
259 272 288 279 262 261 262 250 238 239 237 242 257 270 262 240 224 213 209 215 221 228 225 204 192 191 185 180 332 0 347 347 350 349 347 347 349 350 349 343 342 344 346 344
241 259 290 277 295 301 268 241 224 219 218 222 242 248 242 251 240 234 229 225 224 221 218 203 192 186 182 167 132 330 336 346 346 340 341 346 348 349 347 343 344 343 340 340
263 277 264 283 306 259 244 102 177 220 235 227 238 248 240 242 265 258 234 223 219 208 203 198 184 170 153 134 134 181 330 332 331 336 342 346 347 343 341 341 338 334 332 332
221 246 266 271 278 275 259 191 175 209 262 229 229 236 232 170 321 272 219 184 190 191 179 173 161 152 146 152 163 185 296 312 327 334 339 340 341 336 333 331 325 322 324 323
217 232 252 258 265 262 261 132 115 103 274 225 190 201 188 151 240 251 157 143 149 124 110 115 124 133 156 164 142 199 279 305 314 326 329 327 324 320 318 315 315 316 317 314
188 212 226 240 254 266 238 141 132 186 249 147 159 182 187 202 215 184 147 148 145 133 125 127 144 161 172 150 143 230 266 282 298 318 313 311 310 307 305 308 311 314 314 315
191 201 207 205 225 250 178 154 195 221 169 179 202 205 212 223 223 185 180 180 175 175 170 164 167 181 167 152 176 239 256 269 300 309 306 307 309 312 320 316 314 317 319 321
209 212 214 212 224 236 180 203 221 195 223 235 235 237 221 231 236 224 209 199 194 195 188 180 184 192 191 180 186 239 268 302 319 308 305 307 312 315 317 316 317 321 321 318
238 209 237 265 261 257 237 236 238 229 228 238 239 236 226 231 233 227 213 203 199 197 192 186 189 200 208 195 195 225 262 314 308 301 304 309 313 315 317 316 313 313 314 315
252 226 235 257 270 276 259 244 241 235 222 230 245 239 230 230 234 229 220 212 205 197 187 187 201 211 212 196 201 199 182 146 299 300 304 310 312 310 311 310 306 307 293 303
220 225 228 245 243 250 272 255 228 227 229 228 235 247 242 230 229 226 220 212 207 197 187 194 205 211 211 195 193 181 161 177 269 290 300 307 312 311 311 313 313 312 313 316
Height
1497 1500 1502 1501 1501 1500 1499 1500 1503 1503 1503 1505 1505 1503 1502 1501 1502 1503 1503 1503 1503 1502 1500 1498 1495 1493 1490 1487 1485 1483 1481 1480 1479 1478 1477 1476 1476 1476 1477 1477 1478 1479 1480 1481
1500 1503 1503 1502 1502 1502 1502 1503 1504 1503 1502 1504 1503 1501 1498 1498 1500 1501 1502 1502 1502 1500 1499 1497 1494 1491 1488 1485 1483 1481 1479 1477 1476 1475 1474 1473 1473 1472 1473 1473 1474 1475 1476 1476
1502 1505 1504 1504 1504 1504 1505 1506 1507 1507 1505 1502 1504 1501 1495 1495 1498 1500 1501 1501 1501 1500 1498 1496 1493 1490 1487 1484 1481 1479 1477 1475 1473 1472 1471 1470 1470 1469 1469 1469 1470 1471 1472 1472
1504 1505 1506 1506 1506 1506 1507 1506 1507 1507 1509 1508 1504 1510 1496 1493 1496 1498 1500 1500 1500 1499 1497 1495 1492 1489 1486 1483 1481 1478 1475 1473 1471 1470 1469 1467 1466 1465 1465 1466 1466 1467 1468 1468
1506 1507 1507 1508 1507 1508 1509 1507 1508 1508 1509 1510 1504 1508 1500 1492 1495 1497 1498 1499 1499 1498 1496 1494 1492 1489 1486 1483 1480 1477 1474 1472 1470 1468 1467 1465 1464 1463 1463 1463 1463 1463 1464 1465
1507 1508 1509 1509 1508 1509 1509 1509 1508 1508 1510 1513 1501 1505 1501 1493 1492 1494 1496 1497 1497 1496 1495 1493 1491 1488 1485 1482 1479 1476 1473 1471 1469 1467 1465 1464 1462 1461 1461 1460 1460 1460 1461 1461
1508 1508 1509 1510 1510 1509 1510 1512 1513 1513 1514 1507 1493 1499 1499 1489 1489 1492 1494 1495 1495 1495 1493 1492 1489 1487 1484 1481 1478 1476 1473 1470 1468 1466 1464 1463 1461 1460 1459 1458 1457 1457 1457 1457
1510 1511 1509 1509 1509 1510 1509 1510 1515 1514 1508 1501 1496 1498 1492 1487 1489 1491 1493 1493 1494 1493 1492 1490 1488 1486 1483 1481 1478 1475 1472 1470 1468 1465 1463 1462 1460 1459 1457 1457 1456 1455 1454 1454
1509 1511 1508 1508 1509 1509 1508 1509 1509 1513 1507 1506 1496 1488 1488 1487 1488 1490 1491 1492 1492 1492 1490 1489 1487 1485 1483 1480 1478 1475 1472 1470 1467 1465 1463 1461 1459 1458 1456 1455 1454 1453 1452 1452
1509 1512 1507 1507 1509 1510 1510 1509 1511 1512 1510 1505 1493 1486 1488 1487 1487 1488 1489 1489 1490 1490 1489 1487 1486 1484 1482 1479 1477 1475 1472 1470 1467 1465 1463 1461 1459 1457 1455 1454 1452 1451 1450 1449
1509 1512 1510 1508 1508 1506 1510 1510 1509 1509 1509 1510 1504 1494 1481 1482 1483 1485 1486 1487 1487 1487 1486 1486 1484 1483 1481 1479 1477 1475 1472 1470 1467 1465 1463 1460 1458 1456 1454 1453 1451 1449 1448 1447
1508 1511 1512 1505 1501 1501 1503 1503 1505 1510 1507 1502 1505 1498 1480 1480 1481 1483 1484 1485 1485 1485 1484 1484 1483 1481 1480 1478 1476 1474 1472 1469 1467 1465 1462 1460 1458 1456 1453 1451 1450 1448 1446 1445
1510 1512 1515 1507 1508 1505 1503 1500 1501 1503 1505 1505 1504 1495 1481 1480 1480 1481 1482 1482 1482 1482 1482 1481 1481 1480 1479 1477 1475 1473 1471 1469 1466 1464 1461 1459 1457 1454 1452 1450 1448 1446 1445 1443
1511 1511 1513 1511 1503 1501 1501 1498 1498 1501 1507 1501 1494 1485 1480 1479 1479 1479 1479 1479 1480 1480 1480 1479 1479 1478 1477 1475 1474 1472 1470 1467 1465 1462 1460 1457 1455 1453 1451 1449 1447 1445 1443 1441
1511 1511 1507 1503 1498 1496 1495 1494 1493 1495 1494 1494 1484 1480 1475 1475 1476 1476 1476 1477 1477 1477 1477 1477 1476 1476 1475 1473 1472 1470 1468 1466 1463 1461 1458 1456 1454 1452 1449 1447 1445 1443 1441 1439
1510 1509 1506 1502 1494 1491 1489 1485 1485 1486 1485 1483 1480 1477 1471 1472 1472 1473 1473 1474 1474 1474 1475 1474 1474 1473 1472 1471 1469 1468 1466 1464 1462 1459 1457 1455 1452 1450 1448 1446 1443 1441 1439 1437
1508 1508 1508 1504 1492 1491 1488 1475 1475 1477 1474 1475 1476 1471 1469 1470 1470 1470 1471 1471 1471 1471 1471 1471 1471 1470 1469 1468 1467 1465 1464 1462 1460 1458 1456 1453 1451 1448 1446 1444 1442 1440 1437 1435
1508 1508 1509 1505 1499 1497 1475 1465 1465 1467 1467 1467 1466 1465 1466 1467 1467 1468 1468 1468 1468 1468 1468 1468 1467 1467 1466 1465 1464 1463 1461 1460 1458 1456 1454 1451 1449 1447 1444 1442 1440 1438 1435 1433
1506 1507 1508 1505 1500 1484 1468 1465 1465 1467 1466 1461 1461 1462 1463 1464 1465 1465 1465 1464 1465 1465 1465 1465 1464 1464 1463 1462 1461 1460 1459 1457 1456 1454 1452 1449 1447 1445 1442 1440 1438 1435 1433 1430
1504 1506 1509 1503 1499 1488 1467 1465 1464 1467 1468 1456 1457 1459 1461 1462 1467 1464 1462 1462 1462 1462 1462 1462 1461 1461 1460 1459 1458 1457 1456 1454 1453 1451 1449 1447 1445 1443 1440 1438 1436 1433 1431 1428
1505 1506 1506 1504 1498 1479 1465 1464 1466 1473 1464 1456 1456 1457 1458 1460 1461 1460 1459 1459 1459 1459 1459 1458 1458 1457 1457 1456 1455 1454 1453 1451 1450 1449 1447 1445 1443 1440 1438 1436 1433 1431 1428 1425
1495 1498 1497 1495 1494 1480 1462 1463 1465 1460 1456 1455 1455 1456 1456 1457 1457 1457 1456 1456 1456 1456 1455 1455 1454 1454 1453 1453 1452 1451 1449 1448 1447 1445 1444 1442 1440 1438 1435 1433 1430 1428 1425 1422
1482 1480 1478 1477 1471 1459 1457 1456 1455 1455 1454 1454 1454 1454 1454 1454 1453 1453 1453 1453 1452 1452 1452 1451 1451 1450 1450 1449 1448 1447 1446 1445 1444 1442 1440 1439 1437 1435 1432 1430 1427 1425 1422 1419
1472 1470 1471 1468 1458 1454 1453 1452 1452 1452 1451 1450 1451 1451 1450 1450 1450 1450 1449 1449 1448 1448 1448 1448 1447 1446 1446 1446 1445 1444 1443 1442 1441 1439 1437 1435 1434 1432 1430 1427 1425 1422 1419 1416
1470 1467 1468 1463 1455 1451 1448 1447 1447 1447 1447 1447 1447 1446 1446 1446 1445 1446 1445 1445 1444 1444 1444 1444 1443 1443 1442 1442 1441 1440 1439 1438 1437 1436 1434 1432 1431 1428 1426 1424 1422 1419 1416 1414
1461 1462 1463 1455 1449 1448 1444 1443 1443 1443 1442 1442 1442 1442 1441 1441 1441 1441 1441 1441 1440 1440 1440 1439 1439 1439 1438 1438 1437 1437 1436 1435 1434 1432 1431 1429 1427 1425 1423 1420 1418 1416 1414 1411